Andrews, NC

8:44 AM EDT on May 25, 2017 (GMT -0400)
Andrews

Weather History for KRHP - January, 2007

Change the Weather History Date:

Monday, January 1, 2007

  Actual Average (KMMI) Record (KMMI)
Temperature  
Mean Temperature 48 °F -  
Max Temperature 57 °F 49 °F 48 °F (2014)
Min Temperature 39 °F 31 °F 19 °F (2014)
Degree Days  
Heating Degree Days 17    
Moisture  
Dew Point 42 °F    
Average Humidity 80    
Maximum Humidity 100    
Minimum Humidity 58    
Precipitation  
Precipitation 0.00 in - - ()
Sea Level Pressure  
Sea Level Pressure 30.05 in    
Wind  
Wind Speed 3 mph (NW)    
Max Wind Speed 15 mph    
Max Gust Speed 20 mph    
Visibility 7 miles    
Events Fog    
Averages and records for this station are not official NWS values.
T = Trace of Precipitation, MM = Missing Value Source: NWS Daily Summary

Daily Weather History Graph

Daily Weather History Graph

Search for Another Location

Airport or City:

Trip Planner

Search our weather history database for the weather conditions in past years. The results will help you decide how hot, cold, wet, or windy it might be!

Date:

Astronomy

Jan. 01, 2007 Rise Set
Actual Time 7:43 AM EST 5:34 PM EST
Civil Twilight 7:15 AM EST 6:02 PM EST
Nautical Twilight 6:44 AM EST 6:33 PM EST
Astronomical Twilight 6:13 AM EST 7:04 PM EST
Moon 3:35 PM EST (1/1) 6:05 AM EST (1/1)
Length of Visible Light 10h 46m
Length of Day
9h 50m
Waxing Gibbous, 96% of the Moon is Illuminated
Jan 1
Waxing Gibbous
Jan 3
Full
Jan 11
Last Quarter
Jan 18
New
Jan 25
First Quarter

Hourly Weather History & Observations

Time (EST) Temp. Windchill Dew Point Humidity Pressure Visibility Wind Dir Wind Speed Gust Speed Precip Events Conditions
12:02 AM 57.2 °F - 55.4 °F 94% 30.00 in 10.0 mi Calm Calm - N/A   Overcast
12:43 AM 57.2 °F - 55.4 °F 94% 29.99 in 10.0 mi Calm Calm - N/A   Overcast
1:02 AM 57.2 °F - 55.4 °F 94% 29.99 in 10.0 mi Calm Calm - N/A   Mostly Cloudy
2:02 AM 55.4 °F - 53.6 °F 94% 29.99 in 10.0 mi Calm Calm - N/A   Overcast
2:22 AM 53.6 °F - 51.8 °F 94% 29.99 in 10.0 mi WNW 4.6 mph - N/A   Scattered Clouds
2:42 AM 53.6 °F - 50.0 °F 88% 29.99 in 10.0 mi Calm Calm - N/A   Clear
3:02 AM 51.8 °F - 48.2 °F 88% - 10.0 mi Calm Calm - N/A   Clear
3:22 AM 51.8 °F - 48.2 °F 88% 29.99 in 10.0 mi North 4.6 mph - N/A   Clear
3:42 AM 51.8 °F - 48.2 °F 88% 29.99 in 10.0 mi Calm Calm - N/A   Clear
4:42 AM 46.4 °F - 44.6 °F 93% 29.99 in 1.8 mi Calm Calm - N/A   Scattered Clouds
5:02 AM 46.4 °F - 44.6 °F 93% 29.99 in 0.8 mi Calm Calm - N/A   Mist
5:22 AM 46.4 °F - 44.6 °F 93% 30.00 in 0.8 mi Calm Calm - N/A   Overcast
5:42 AM 46.4 °F - 44.6 °F 93% 30.00 in 4.0 mi Calm Calm - N/A   Mostly Cloudy
6:02 AM 44.6 °F - 42.8 °F 93% 30.00 in 0.5 mi Calm Calm - N/A Fog Fog
6:23 AM 44.6 °F - 42.8 °F 93% 30.01 in 0.8 mi Calm Calm - N/A   Overcast
7:01 AM 44.6 °F - 42.8 °F 93% 30.02 in 0.5 mi Calm Calm - N/A Fog Fog
7:22 AM 44.6 °F - 42.8 °F 93% 30.03 in 0.5 mi Calm Calm - N/A Fog Fog
7:43 AM 44.6 °F - 42.8 °F 93% 30.03 in 0.8 mi Calm Calm - N/A   Overcast
8:23 AM 42.8 °F - 42.8 °F 100% 30.03 in 0.2 mi Calm Calm - N/A Fog Fog
9:04 AM 44.6 °F - 42.8 °F 93% 30.03 in 0.2 mi Calm Calm - N/A Fog Fog
9:22 AM 44.6 °F - 42.8 °F 93% 30.03 in 0.2 mi Calm Calm - N/A Fog Fog
10:02 AM 46.4 °F - 44.6 °F 93% 30.02 in 0.2 mi Calm Calm - N/A Fog Fog
10:40 AM 48.2 °F - 48.2 °F 100% 30.01 in 10.0 mi Calm Calm - N/A   Scattered Clouds
11:02 AM 51.8 °F - 48.2 °F 88% 30.01 in 10.0 mi SW 8.1 mph - N/A   Clear
11:21 AM 53.6 °F - 46.4 °F 77% 30.01 in 10.0 mi SW 9.2 mph - N/A   Clear
11:42 AM 55.4 °F - 44.6 °F 67% 30.00 in 10.0 mi SW 9.2 mph - N/A   Clear
12:04 PM 55.4 °F - 44.6 °F 67% 29.99 in 10.0 mi SW 5.8 mph - N/A   Clear
1:43 PM 57.2 °F - 42.8 °F 59% 29.97 in 10.0 mi WSW 15.0 mph 19.6 mph N/A   Clear
2:42 PM 53.6 °F - 39.2 °F 58% 30.00 in 10.0 mi SW 13.8 mph 19.6 mph N/A   Mostly Cloudy
3:42 PM 50.0 °F - 37.4 °F 62% 30.04 in 10.0 mi West 6.9 mph - N/A   Mostly Cloudy
4:03 PM 48.2 °F - 35.6 °F 62% 30.05 in 10.0 mi West 11.5 mph 18.4 mph N/A   Scattered Clouds
4:23 PM 48.2 °F - 35.6 °F 62% 30.06 in 10.0 mi West 5.8 mph - N/A   Mostly Cloudy
4:42 PM 48.2 °F - 35.6 °F 62% 30.06 in 10.0 mi WNW 9.2 mph - N/A   Mostly Cloudy
5:02 PM 46.4 °F 41.9 °F 35.6 °F 66% 30.08 in 10.0 mi West 9.2 mph 16.1 mph N/A   Clear
5:24 PM 46.4 °F 41.9 °F 35.6 °F 66% 30.08 in 10.0 mi West 9.2 mph - N/A   Clear
6:01 PM 44.6 °F 43.1 °F 35.6 °F 71% 30.10 in 10.0 mi North 3.5 mph - N/A   Scattered Clouds
6:22 PM 46.4 °F 41.9 °F 35.6 °F 66% 30.11 in 10.0 mi NNW 9.2 mph - N/A   Overcast
6:42 PM 44.6 °F 38.1 °F 33.8 °F 66% 30.12 in 10.0 mi North 13.8 mph 17.3 mph N/A   Overcast
7:25 PM 44.6 °F 39.7 °F 33.8 °F 66% 30.15 in 10.0 mi NNE 9.2 mph - N/A   Overcast
8:01 PM 42.8 °F 40.1 °F 33.8 °F 70% 30.16 in 10.0 mi North 4.6 mph - N/A   Overcast
8:22 PM 42.8 °F 40.1 °F 32.0 °F 66% 30.18 in 10.0 mi NNW 4.6 mph - N/A   Overcast
9:02 PM 41.0 °F 38.0 °F 30.2 °F 65% 30.20 in 10.0 mi NNE 4.6 mph 16.1 mph N/A   Overcast
9:42 PM 39.2 °F 33.0 °F 30.2 °F 70% 30.21 in 10.0 mi ENE 9.2 mph 16.1 mph N/A   Overcast
10:46 PM 39.2 °F 35.0 °F 30.2 °F 70% 30.22 in 10.0 mi NE 5.8 mph - N/A   Overcast
11:02 PM 39.2 °F 33.0 °F 30.2 °F 70% 30.23 in 10.0 mi North 9.2 mph - N/A   Overcast
11:25 PM 39.2 °F 33.0 °F 28.4 °F 65% 30.23 in 10.0 mi ENE 9.2 mph 16.1 mph N/A   Overcast